Regional Weather Roundup
Issued by NWS

Home | Current Version | Previous Version | Graphics & Text | Print | Product List | Glossary On
Versions: 1 2 3 4 5 6 7 8 9 10 11 12 13 14 15 16 17 18 19 20 21 22 23 24 25 26 27
000
ASUS45 KTFX 230110
RWRMT
MONTANA REGIONAL WEATHER ROUNDUP
NATIONAL WEATHER SERVICE GREAT FALLS MT
700 PM MDT THU JUN 22 2017

NOTE: "FAIR" INDICATES FEW OR NO CLOUDS BELOW 12000 FEET WITH NO
SIGNIFICANT WEATHER AND/OR OBSTRUCTIONS TO VISIBILITY.

MTZ001>007-043-230200-
WEST OF THE DIVIDE

CITY           SKY/WX    TMP DP  RH WIND       PRES   REMARKS
KALISPELL      CLOUDY    69  35  28 W3        30.16S
MISSOULA       SUNNY     71  31  22 N13       30.16S
BUTTE          PTSUNNY   62  24  23 N13G26    30.21R
MULLAN PASS    SUNNY     57  28  33 VRB5      30.29S
ANACONDA         N/A     63  28  27 N14G22    30.19R
DEER LODGE       N/A     64  28  25 NW8       30.22R
EUREKA           N/A     72  28  20 MISG      30.16S
LIBBY            N/A     73  28  19 NW5       30.15S
$$

MTZ008-052>055-230200-
SOUTHWEST MONTANA

CITY           SKY/WX    TMP DP  RH WIND       PRES   REMARKS
BOZEMAN        CLOUDY    64  30  27 N17       30.15R
DILLON         SUNNY     69  27  20 N16G24    30.13R
W YELLOWSTONE  SUNNY     64  19  17 NW12G21   30.16R
ENNIS          MOSUNNY   63  25  23 N14G23    30.20R
THREE FORKS      N/A     65  30  27 N8        30.14R
$$

MTZ009-010-012-014-046-048-049-054-230200-
EAST SLOPES AND CENTRAL MONTANA

CITY           SKY/WX    TMP DP  RH WIND       PRES   REMARKS
CUT BANK       PTSUNNY   59  37  44 N16       30.21F
GREAT FALLS    CLOUDY    61  37  41 NE13      30.23S
MALMSTROM AFB  PTSUNNY   59  37  44 N13       30.24R
HELENA         SUNNY     67  32  27 N14       30.20R
CHOTEAU          N/A     61  37  41 NE12      30.24S
$$

MTZ011-013-016-021-045-047-050-051-230200-
NORTH CENTRAL MONTANA

CITY           SKY/WX    TMP DP  RH WIND       PRES   REMARKS
HAVRE          CLOUDY    60  36  40 NW18G26   30.17R
LEWISTOWN      CLOUDY    53  36  52 NW15G24   30.22R
N BAR RANCH      N/A     55  32  41 NW30G37   30.19S
CHINOOK          N/A     59  39  47 NW20G25   30.15R
FORT BENTON      N/A    N/A N/A N/A MISG      30.24R
$$

MTZ017>020-022>027-061-062-230200-
NORTHEAST MONTANA

CITY           SKY/WX    TMP DP  RH WIND       PRES   REMARKS
GLASGOW        CLOUDY    55  45  68 NW20G30   30.07R
JORDAN           N/A     59  40  49 NW30G39   30.10R
SIDNEY         MOSUNNY   62  46  55 NW21G33   29.95R
WOLF POINT     CLOUDY    59  46  62 NW26G38   30.02R
MALTA          CLOUDY    57  41  54 NW24G32   30.12R
PLENTYWOOD       N/A     55  54  94 NW26G35   29.91R
POPLAR           N/A     57  46  67 NW25G31   29.99R
$$

MTZ028>42-056>058-230200-
SOUTHCENTRAL AND SOUTHEAST MONTANA

CITY           SKY/WX    TMP DP  RH WIND       PRES   REMARKS
BAKER          SUNNY     66  32  28 NW33G41   29.99R
BILLINGS       MOSUNNY   66  29  24 N18G31    30.10R
LIVINGSTON     CLOUDY    63  29  27 N13G20    30.15R
MILES CITY     SUNNY     66  32  28 N35G43    30.05R
BIG TIMBER     MOSUNNY   59  32  36 VRB6G13   30.18R
FORSYTH          N/A     64  36  34 NW22G31   30.05R
ROUNDUP          N/A     63  28  26 NW21      30.05R
$$

REGIONAL REPORTS...DAKOTAS

CITY           SKY/WX    TMP DP  RH WIND       PRES   REMARKS
WILLISTON      CLOUDY    63  48  58 NW20G31   29.91R
MINOT          PTSUNNY   63  45  51 W25G38    29.78R
DICKINSON      SUNNY     65  30  27 NW33G43   29.89R
BEACH            N/A     59  36  41 NW30G43   30.00R
CROSBY         DRIZZLE   55  57 100 NW23G31   29.85R
TIOGA          CLOUDY    57  50  77 NW24G36   29.87R
WATFORD CITY   CLOUDY    61  46  59 NW21G33   29.90R
BISMARCK       MOSUNNY   74  31  20 NW22G32   29.81S
GRAND FORKS    PTSUNNY   72  40  31 W17G25    29.66S
FARGO          SUNNY     73  35  25 W15       29.72S
BUFFALO SD       N/A     71  29  21 NW24G33   29.89S
RAPID CITY     SUNNY     74  35  24 N21G29    29.93R
$$

REGIONAL REPORTS...WYOMING/IDAHO/WASHINGTON

CITY           SKY/WX    TMP DP  RH WIND       PRES   REMARKS
GILLETTE         N/A     71  32  23 N21G35    30.02R
SHERIDAN       MOSUNNY   68  33  27 NW17G26   30.07R
BUFFALO WY     MOSUNNY   64  29  26 N25G39    30.09R
CODY           MOSUNNY   63  28  26 N18G29    30.13R
YELLOWSTONE LA   N/A     60  15  17 W12G20    30.22R
IDAHO FALLS    SUNNY     76  39  26 S15       30.05F
SALMON         SUNNY     73  28  19 NW7       30.10R
BOISE          SUNNY     81  28  14 NW23G32   30.05F
SPOKANE        MOSUNNY   75  28  17 NW5       30.19S
$$

REGIONAL REPORTS...ALBERTA

CITY           SKY/WX    TMP DP  RH WIND       PRES   REMARKS
EDMONTON       MOSUNNY   61  37  41 N15G21    30.17R
CALGARY        MOSUNNY   61  34  36 N17G26    30.20R
LETHBRIDGE     MOSUNNY   63  36  36 NE12      30.20S
MEDICINE HAT   PTSUNNY   59  39  47 N17G24    30.17S
WATERTON GATE    N/A     57  37  47 E6          N/A
CARDSTON         N/A     59  39  47 NE8         N/A
$$

REGIONAL REPORTS...SASKATCHEWAN

CITY           SKY/WX    TMP DP  RH WIND       PRES   REMARKS
SWIFT CURRENT  PTSUNNY   54  43  66 NW25G33   30.04S
REGINA         CLOUDY    54  46  76 NW28G37   29.91R
SASKATOON      PTSUNNY   57  39  51 N17G28    30.00R
CYPRESS HILLS    N/A     46  39  76 NW12G21     N/A
VAL MARIE        N/A     52  45  76 NW20G25     N/A
ROCKGLEN         N/A     48  45  87 NW21G31     N/A
ASSINIBOIA       N/A     57  36  44 NW17        N/A
$$




USA.gov is the U.S. government's official web portal to all federal, state and local government web resources and services.